STARLINK-32512, 62027

Orbit data source: Space-Track

STARLINK-32512, 62027 is a payload satellite owned by SpaceX/Seattle (US) in LEO that was launched on Mon, 18 Nov 2024 UTC via an FALCON 9 launch vehicle from the Air Force Western Test Range (AFWTR). Payload-class satellites include a variety of spacecraft equipped with specific instruments for various scientific and technological missions. These include communications satellites like Starlink; space stations such as the ISS; scientific satellites like the Hubble; Earth observation satellites from companies like Planet Labs, Umbra, and HawkEye 360; GPS; miniature CubeSats for education and research; and military/defense satellites.

Loading next visibility...
Identifier
62027, 2024-213V
Orbit
LEO
Country
Flag of USUS
Related business
Manufacturer
SpaceX/Seattle
Mission
Operational Commercial Communications
Bus & Motor
STARLINK V2M, Unknown motor
Mass
730 kg wet, ~700 kg dry
Launch date (UTC)
2024-11-18 (11 months ago)
Launch vehicle
FALCON 9
Launch site
Air Force Western Test Range (AFWTR)
Object type
Payload
Rocket body
Debris
Shape & HBR
Box + 2 Pan, 17.7 m
Radar Cross Section
33.884 m², Large (>1 m²)

Expand to show TLE details & history
Last TLE update: 8 hours ago

TLE from 8 hours ago
0 STARLINK-32512
1 62027U 24213V   25293.17048130  .00063414  00000-0  21350-2 0  9995
2 62027  53.1570 100.6103 0000851  62.1535 297.9552 15.30199315 51649
Epoch: 2025-10-20T04:05Z
TLE epoch observation values (Epoch: 2025-10-20T04:05:29.584Z)
Latitude
-0°
Longitude
10.3604°
Altitude
475.843 km
Speed
7.629 km/s
True Right ascension
06h 42m 26s
True Declination
0° 00' 00"
Sunlit
Object was in daylight at epoch
Visualization orbit readout
Latitude
Unknown
Longitude
Unknown
Altitude
Unknown
Speed
Unknown
Apparent Right ascension
Unknown
Apparent Declination
Unknown
Sunlit
N/A
Visualization observer readout
Local Sidereal Time
07:14:47
Azimuth
Unknown
Elevation
Unknown
Doppler factor
Unknown
Orbital elements
Apogee altitude
476.057 km
Perigee altitude
474.891 km
Semi-major axis
6,853.611 km
Eccentricity
0.00009
Inclination
53.157°
RAAN
100.6103°
Arg. of periapsis
62.1535°
True anomaly
297.94659°
Mean anomaly
297.9552°
Eccentric anomaly
297.95089°
Mean motion
3.82529 °/min
Orbital period
94.11 mins
BSTAR
0.002135
Loading maneuver chart data...
Computing Atmospheric mass density...
Loading historical data...
Loading historical data...
Loading historical data...
Loading historical data...
Loading historical data...
Loading historical data...
Loading historical data...

Documentation

Showing up to 5 results
|